Skip Page Navigation
NASA JPL Caltech
NASA Logo - Jet Propulsion Laboratory + View the NASA Portal
+ Center for Near-Earth Object Studies
JPL Home Earth Solar System Stars & Galaxies Technology
JPL Solar System Dynamics
BODIES ORBITS EPHEMERIDES TOOLS PHYSICAL DATA DISCOVERY FAQ SITE MAP
JPL Small-Body Database Browser
Search: [ help ]  
214254 (2005 EV313)
Classification: Main-belt Asteroid          SPK-ID: 2214254
Ephemeris | Orbit Diagram | Orbital Elements | Mission Design | Physical Parameters | Discovery Circumstances | Close-Approach Data ]

[ show orbit diagram ]
Orbital Elements at Epoch 2459000.5 (2020-May-31.0) TDB
Reference: JPL 15 (heliocentric ecliptic J2000)
 Element Value Uncertainty (1-sigma)   Units 
e .02930730717177895 8.85e-08  
a 2.403511256333787 1.6645e-08 au
q 2.333070813653585 2.139e-07 au
i 1.46230776213556 6.0427e-06 deg
node 43.56570202844805 0.00022345 deg
peri 321.9282760002604 0.00023667 deg
M 199.4180659300304 8.055e-05 deg
tp 2459607.602261992119
(2022-Jan-28.10226199)
0.00030625 TDB
period 1361.02990403598
3.73
1.4138e-05
3.871e-08
d
yr
n .2645055769402721 2.7477e-09 deg/d
Q 2.47395169901399 1.7133e-08 au
  Orbit Determination Parameters
   # obs. used (total)      293  
   data-arc span      7509 days (20.56 yr)  
   first obs. used      1999-10-04  
   last obs. used      2020-04-25  
   planetary ephem.      DE431  
   SB-pert. ephem.      SB431-N16  
   condition code      0  
   norm. resid. RMS      .56007  
   source      ORB  
   producer      Otto Matic  
   solution date      2020-May-21 09:05:00  

Additional Information
 Earth MOID = 1.33009 au 
 Jupiter MOID = 2.62113 au 
 T_jup = 3.523 
[ hide covariance matrix ]
Orbital Elements at Epoch 2457173.5 (2015-May-31.0) TDB
Reference: JPL 15 (heliocentric ecliptic J2000)
 Element Value Uncertainty (1-sigma)   Units 
e .02843399534153692 8.8264e-08  
q 2.335267467241569 2.1315e-07 au
tp 2456878.211573580104
(2014-Aug-08.71157358)
0.00031183 TDB
node 43.5770393380076 0.00022338 deg
peri 320.2092053880405 0.00023765 deg
i 1.462857143446952 6.0412e-06 deg
  Orbit Determination Parameters
   # obs. used (total)      293  
   data-arc span      7509 days (20.56 yr)  
   first obs. used      1999-10-04  
   last obs. used      2020-04-25  
   planetary ephem.      DE431  
   SB-pert. ephem.      SB431-N16  
   condition code      0  
   norm. resid. RMS      .56007  
   source      ORB  
   producer      Otto Matic  
   solution date      2020-May-21 09:05:00  

Additional Information
 Jupiter MOID = 2.62113 au 
 T_jup = 3.523 
Orbit Covariance (6×6)
  e q tp node peri i
e 7.79056161358383E-15 -1.875934631123235E-14 5.409777880929996E-12 -4.948522513498187E-14 1.132065629830327E-12 3.238044011335447E-15
q -1.875934631123235E-14 4.543306870543199E-14 -1.201020474180059E-11 1.187862130863976E-13 -2.44883998687485E-12 -7.760470936735217E-15
tp 5.409777880929996E-12 -1.201020474180059E-11 9.723954443893502E-8 2.447899853438324E-12 2.531068896342219E-8 -3.736210609233942E-12
node -4.948522513498187E-14 1.187862130863976E-13 2.447899853438324E-12 4.99002976144314E-8 -4.988063804516117E-8 -6.127920329899129E-10
peri 1.132065629830327E-12 -2.44883998687485E-12 2.531068896342219E-8 -4.988063804516117E-8 5.647899178410422E-8 6.114662037293879E-10
i 3.238044011335447E-15 -7.760470936735217E-15 -3.736210609233942E-12 -6.127920329899129E-10 6.114662037293879E-10 3.649626446991316E-11

Ephemeris | Orbit Diagram | Orbital Elements | Mission Design | Physical Parameters | Discovery Circumstances | Close-Approach Data ]

Physical Parameter Table
Parameter Symbol Value Units Sigma Reference Notes
absolute magnitude H 17.0   n/a MPO470300  

214254 (2005 EV313)          Discovered 2005-Mar-10 by Mt. Lemmon Survey at Mount Lemmon
Reference: 20090509/Numbers.arcLast Updated: 2009-05-11

[ show close-approach data ]
Alternate Designations
 2005 EV313 = 2005 GF85 
Ephemeris | Orbit Diagram | Orbital Elements | Mission Design | Physical Parameters | Discovery Circumstances | Close-Approach Data ]
ABOUT SSD CREDITS/AWARDS PRIVACY/COPYRIGHT GLOSSARY LINKS
FirstGov 2020-Sep-23 06:59 UT
(server date/time)  
NASA Home Page
Site Manager:   Ryan S. Park
Webmaster  Alan B. Chamberlin